GW5037 Weather Reports


time (UTC)temp
C
wind
direction
speed
KPH
gust
KPH
rain 1hr
cm
rain 24hr
cm
rain mn
cm
humidity
%
barometer
mb
20260508185247 18 62 3.2 3.2 0.00 0.00 0.00 53 1007.9
20260508184744 18 52 0.0 1.6 0.00 0.00 0.00 53 1008.3
20260508184241 19 8 4.8 8.0 0.00 0.00 0.00 50 1007.9
20260508183738 20 101 3.2 3.2 0.00 0.00 0.00 50 1007.9
20260508183234 20 59 1.6 1.6 0.00 0.00 0.00 50 1007.9
20260508182730 20 17 6.4 9.7 0.00 0.00 0.00 49 1008.3
20260508182227 20 64 4.8 4.8 0.00 0.00 0.00 48 1008.3
20260508181723 20 200 6.4 8.0 0.00 0.00 0.00 49 1008.3
20260508181221 20 93 0.0 1.6 0.00 0.00 0.00 52 1008.6
20260508180717 20 349 6.4 9.7 0.00 0.00 0.00 52 1008.3
20260508180214 19 65 0.0 1.6 0.00 0.00 0.00 53 1008.6
20260508175710 19 65 1.6 1.6 0.00 0.00 0.00 53 1008.9
20260508175207 19 74 1.6 1.6 0.00 0.00 0.00 51 1008.9
20260508174705 18 70 3.2 3.2 0.00 0.00 0.00 53 1009.3
20260508174201 19 35 3.2 4.8 0.00 0.00 0.00 53 1008.9
20260508173658 20 64 0.0 1.6 0.00 0.00 0.00 54 1009.3
20260508173154 18 72 0.0 3.2 0.00 0.00 0.00 55 1009.3
20260508172652 18 68 0.0 0.0 0.00 0.00 0.00 56 1009.3
20260508172148 17 80 1.6 3.2 0.00 0.00 0.00 55 1009.6
20260508171645 17 88 0.0 1.6 0.00 0.00 0.00 56 1009.6
20260508171141 17 86 0.0 0.0 0.00 0.00 0.00 58 1010.0
20260508170638 16 83 0.0 0.0 0.00 0.00 0.00 58 1010.0
20260508170136 16 73 1.6 1.6 0.00 0.00 0.00 58 1010.0
20260508165633 16 88 0.0 1.6 0.00 0.00 0.00 58 1010.4
20260508165130 17 83 1.6 1.6 0.00 0.00 0.00 58 1010.0
20260508164626 17 56 0.0 1.6 0.00 0.00 0.00 55 1010.0
20260508164123 17 57 1.6 1.6 0.00 0.00 0.00 56 1010.0
20260508163615 17 56 0.0 0.0 0.00 0.00 0.00 56 1010.4
20260508163112 17 34 4.8 8.0 0.00 0.00 0.00 56 1010.0
20260508162608 16 59 1.6 3.2 0.00 0.00 0.00 58 1010.4
20260508162105 17 43 1.6 1.6 0.00 0.00 0.00 55 1010.4
20260508161602 16 66 0.0 0.0 0.00 0.00 0.00 58 1010.4
20260508161059 16 4 1.6 9.7 0.00 0.00 0.00 57 1010.7
20260508160558 16 231 6.4 9.7 0.00 0.00 0.00 56 1010.7
20260508160054 16 71 0.0 1.6 0.00 0.00 0.00 56 1010.7
20260508155552 16 27 3.2 3.2 0.00 0.00 0.00 57 1010.7
20260508155048 16 101 3.2 4.8 0.00 0.00 0.00 56 1010.7
20260508154545 15 65 4.8 4.8 0.00 0.00 0.00 57 1010.7
20260508154042 15 49 1.6 3.2 0.00 0.00 0.00 59 1010.7
20260508153539 14 65 1.6 1.6 0.00 0.00 0.00 59 1010.7
20260508153035 14 65 4.8 8.0 0.00 0.00 0.00 59 1010.7
20260508152533 13 82 0.0 1.6 0.00 0.00 0.00 61 1010.7
20260508152029 13 69 1.6 3.2 0.00 0.00 0.00 61 1010.4
20260508151526 13 58 3.2 3.2 0.00 0.00 0.00 62 1011.1
20260508151022 13 145 1.6 1.6 0.00 0.00 0.00 63 1010.7
20260508150520 13 69 0.0 0.0 0.00 0.00 0.00 66 1011.1
20260508150015 13 62 1.6 3.2 0.00 0.00 0.00 65 1011.1
20260508145512 12 51 1.6 3.2 0.00 0.00 0.00 65 1011.1
20260508145008 12 76 0.0 0.0 0.00 0.00 0.00 65 1011.1
20260508144506 12 55 4.8 4.8 0.00 0.00 0.00 66 1011.1
20260508144003 12 69 4.8 8.0 0.00 0.00 0.00 66 1011.1
20260508143501 11 31 1.6 3.2 0.00 0.00 0.00 67 1011.1
20260508142957 11 77 4.8 4.8 0.00 0.00 0.00 68 1011.1
20260508142455 11 63 0.0 0.0 0.00 0.00 0.00 69 1011.1
20260508141950 11 64 0.0 1.6 0.00 0.00 0.00 68 1011.1
20260508141447 11 52 3.2 4.8 0.00 0.00 0.00 68 1011.4
20260508140945 11 93 3.2 4.8 0.00 0.00 0.00 68 1011.1
20260508140441 11 63 0.0 1.6 0.00 0.00 0.00 68 1011.1
20260508135937 11 62 1.6 1.6 0.00 0.00 0.00 68 1011.1
20260508135434 11 50 3.2 3.2 0.00 0.00 0.00 67 1011.1
20260508134930 11 91 0.0 1.6 0.00 0.00 0.00 68 1011.1
20260508134426 11 80 1.6 3.2 0.00 0.00 0.00 68 1011.1
20260508133923 11 84 1.6 1.6 0.00 0.00 0.00 67 1011.1
20260508133421 11 64 1.6 3.2 0.00 0.00 0.00 68 1011.1
20260508132918 11 81 1.6 1.6 0.00 0.00 0.00 67 1011.1
20260508132416 11 55 4.8 4.8 0.00 0.00 0.00 67 1011.1
20260508131913 11 63 0.0 1.6 0.00 0.00 0.00 70 1011.1
20260508131408 11 69 0.0 1.6 0.00 0.00 0.00 70 1011.1
20260508130905 11 61 0.0 1.6 0.00 0.00 0.00 70 1011.1
20260508130402 11 68 0.0 0.0 0.00 0.00 0.00 70 1011.1
20260508125857 11 87 0.0 1.6 0.00 0.00 0.00 71 1011.1
20260508125354 10 86 0.0 1.6 0.00 0.00 0.00 71 1011.1
20260508124852 10 162 1.6 3.2 0.00 0.00 0.00 72 1011.1
20260508124349 10 62 0.0 1.6 0.00 0.00 0.00 73 1011.1
20260508123847 10 69 0.0 0.0 0.00 0.00 0.00 72 1011.1
20260508123346 10 60 0.0 1.6 0.00 0.00 0.00 72 1011.1
20260508122842 10 66 0.0 0.0 0.00 0.00 0.00 73 1010.7
20260508122338 10 63 1.6 1.6 0.00 0.00 0.00 73 1010.7
20260508121836 10 70 0.0 0.0 0.00 0.00 0.00 74 1010.7
20260508121334 10 39 1.6 4.8 0.00 0.00 0.00 74 1011.1
20260508120831 9 70 0.0 0.0 0.00 0.00 0.00 75 1010.7
20260508120329 9 64 0.0 0.0 0.00 0.00 0.00 75 1011.1
20260508115826 8 70 0.0 1.6 0.00 0.00 0.00 75 1011.1
20260508115324 8 62 0.0 1.6 0.00 0.00 0.00 76 1010.7
20260508114820 8 67 0.0 0.0 0.00 0.00 0.00 76 1011.1
20260508114318 8 63 4.8 4.8 0.00 0.00 0.00 75 1010.7
20260508113814 8 68 1.6 3.2 0.00 0.00 0.00 75 1010.7
20260508113313 8 61 1.6 3.2 0.00 0.00 0.00 75 1010.7
20260508112808 8 57 1.6 1.6 0.00 0.00 0.00 76 1010.4
20260508112307 8 59 0.0 0.0 0.00 0.00 0.00 77 1010.7
20260508111802 7 61 1.6 1.6 0.00 0.00 0.00 78 1010.4
20260508111259 7 66 0.0 0.0 0.00 0.00 0.00 79 1010.4
20260508110756 7 63 0.0 0.0 0.00 0.00 0.00 81 1010.4
20260508110254 6 77 0.0 0.0 0.00 0.00 0.00 81 1010.7
20260508105753 6 82 0.0 0.0 0.00 0.00 0.00 81 1010.7
20260508105250 6 60 0.0 0.0 0.00 0.00 0.00 82 1010.7
20260508104747 6 60 0.0 0.0 0.00 0.00 0.00 81 1010.4
20260508104244 6 60 0.0 0.0 0.00 0.00 0.00 81 1010.4
20260508103741 6 60 0.0 0.0 0.00 0.00 0.00 81 1010.4
20260508103238 6 60 0.0 0.0 0.00 0.00 0.00 80 1010.7
20260508102735 6 60 0.0 0.0 0.00 0.00 0.00 81 1010.4
20260508102233 6 59 0.0 0.0 0.00 0.00 0.00 81 1010.4
20260508101730 6 65 0.0 0.0 0.00 0.00 0.00 81 1010.4
20260508101228 6 53 1.6 1.6 0.00 0.00 0.00 81 1010.4
20260508100725 6 59 0.0 1.6 0.00 0.00 0.00 81 1010.0
20260508100223 6 60 0.0 0.0 0.00 0.00 0.00 80 1010.4
20260508095719 6 60 0.0 0.0 0.00 0.00 0.00 80 1010.4
20260508095217 6 59 0.0 0.0 0.00 0.00 0.00 79 1010.0
20260508094713 7 66 0.0 0.0 0.00 0.00 0.00 79 1010.4
20260508094210 7 60 0.0 1.6 0.00 0.00 0.00 78 1010.0
20260508093707 7 59 0.0 0.0 0.00 0.00 0.00 78 1010.0
20260508093205 7 54 1.6 1.6 0.00 0.00 0.00 78 1010.0
20260508092702 7 57 0.0 1.6 0.00 0.00 0.00 77 1010.0
20260508092200 7 61 0.0 0.0 0.00 0.00 0.00 78 1010.4
20260508091657 7 67 0.0 0.0 0.00 0.00 0.00 77 1010.0
20260508091154 7 60 0.0 1.6 0.00 0.00 0.00 78 1010.0
20260508090652 7 62 0.0 0.0 0.00 0.00 0.00 77 1010.4
20260508090149 7 61 0.0 0.0 0.00 0.00 0.00 78 1010.0
20260508085640 7 61 0.0 0.0 0.00 0.00 0.00 78 1010.4
20260508085138 7 65 0.0 0.0 0.00 0.00 0.00 77 1010.4
20260508084634 7 61 0.0 1.6 0.00 0.00 0.00 77 1010.4
20260508084131 7 76 0.0 0.0 0.00 0.00 0.00 77 1010.4
20260508083628 7 77 0.0 0.0 0.00 0.00 0.00 77 1010.7
20260508083126 7 41 0.0 0.0 0.00 0.00 0.00 77 1010.4
20260508082621 7 62 0.0 0.0 0.00 0.00 0.00 79 1010.4
20260508082119 7 74 0.0 0.0 0.00 0.00 0.00 79 1010.0
20260508081616 7 62 0.0 0.0 0.00 0.00 0.00 80 1010.7
20260508081112 7 63 0.0 0.0 0.00 0.00 0.00 80 1010.4
20260508080610 7 63 0.0 0.0 0.00 0.00 0.00 79 1010.4
20260508080108 7 61 0.0 0.0 0.00 0.00 0.00 80 1010.4
20260508075603 7 65 0.0 0.0 0.00 0.00 0.00 81 1010.4
20260508075101 7 73 0.0 0.0 0.00 0.00 0.00 82 1010.4
20260508074559 7 63 0.0 0.0 0.00 0.00 0.00 83 1010.4
20260508074055 7 63 0.0 0.0 0.00 0.00 0.00 84 1010.7
20260508073553 7 63 0.0 0.0 0.00 0.00 0.00 85 1010.4
20260508073050 7 63 0.0 0.0 0.00 0.00 0.00 85 1010.4
20260508072545 7 64 0.0 0.0 0.00 0.00 0.00 85 1010.7
20260508072043 7 64 0.0 0.0 0.00 0.00 0.00 85 1010.4
20260508071541 7 64 0.0 0.0 0.00 0.00 0.00 85 1010.7
20260508071039 7 64 0.0 0.0 0.00 0.00 0.00 84 1010.7
20260508070536 7 64 0.0 0.0 0.00 0.00 0.00 84 1010.7
20260508070034 7 64 0.0 0.0 0.00 0.00 0.00 84 1010.7
20260508065531 7 64 0.0 0.0 0.00 0.00 0.00 84 1010.7
20260508065029 7 65 0.0 0.0 0.00 0.00 0.00 85 1011.1
20260508064527 8 65 0.0 0.0 0.00 0.00 0.00 86 1011.1
20260508064024 8 65 0.0 0.0 0.00 0.00 0.00 86 1010.7
20260508063521 8 73 0.0 0.0 0.00 0.00 0.00 84 1011.1
20260508063019 8 73 0.0 0.0 0.00 0.00 0.00 84 1011.1
20260508062516 8 73 0.0 0.0 0.00 0.00 0.00 83 1011.1
20260508062013 8 79 0.0 0.0 0.00 0.00 0.00 82 1011.1
20260508061511 8 81 0.0 0.0 0.00 0.00 0.00 82 1011.4
20260508061007 8 82 0.0 0.0 0.00 0.00 0.00 81 1011.4
20260508060504 8 83 0.0 0.0 0.00 0.00 0.00 80 1011.1
20260508060000 9 85 0.0 0.0 0.00 0.00 0.00 78 1011.4
20260508055457 9 77 0.0 0.0 0.00 0.00 0.00 77 1011.4
20260508054953 9 80 0.0 0.0 0.00 0.00 0.00 74 1011.4
20260508054450 9 89 0.0 0.0 0.00 0.00 0.00 71 1011.4
20260508053947 9 82 0.0 0.0 0.00 0.00 0.00 70 1011.1
20260508053444 9 82 0.0 0.0 0.00 0.00 0.00 71 1010.7
20260508052942 9 67 0.0 0.0 0.00 0.00 0.00 70 1010.7
20260508052440 9 75 0.0 0.0 0.00 0.00 0.00 70 1010.7
20260508051936 9 65 0.0 0.0 0.00 0.00 0.00 71 1010.7
20260508051431 9 62 0.0 0.0 0.00 0.00 0.00 70 1011.1
20260508050927 9 61 1.6 1.6 0.00 0.00 0.00 71 1011.1
20260508050424 9 76 0.0 0.0 0.00 0.00 0.00 72 1011.1
20260508045920 9 76 0.0 0.0 0.00 0.00 0.00 71 1011.1
20260508045418 8 59 0.0 0.0 0.00 0.00 0.00 71 1010.7
20260508044916 8 68 0.0 0.0 0.00 0.00 0.00 73 1010.7
20260508044414 8 64 0.0 0.0 0.00 0.00 0.00 74 1011.1
20260508043908 8 62 0.0 1.6 0.00 0.00 0.00 76 1010.7
20260508042145 8 88 0.0 0.0 0.00 0.00 0.00 73 1011.1
20260508041641 8 88 0.0 0.0 0.00 0.00 0.00 73 1011.1
20260508041138 8 88 0.0 0.0 0.00 0.00 0.00 73 1011.1
20260508040635 8 78 0.0 0.0 0.00 0.00 0.00 75 1011.1
20260508040133 8 84 0.0 0.0 0.00 0.00 0.00 77 1011.1
20260508035630 8 89 0.0 0.0 0.00 0.00 0.00 76 1011.1
20260508035127 8 106 0.0 1.6 0.00 0.00 0.00 76 1011.1
20260508034624 8 72 0.0 0.0 0.00 0.00 0.00 75 1011.1
20260508034121 8 72 0.0 0.0 0.00 0.00 0.00 74 1011.1
20260508033618 8 72 0.0 0.0 0.00 0.00 0.00 71 1011.1
20260508033116 8 72 0.0 0.0 0.00 0.00 0.00 72 1011.1
20260508032612 9 72 0.0 0.0 0.00 0.00 0.00 70 1011.1
20260508032110 9 72 0.0 0.0 0.00 0.00 0.00 68 1011.1
20260508031607 9 72 0.0 0.0 0.00 0.00 0.00 68 1010.7
20260508031103 8 75 0.0 0.0 0.00 0.00 0.00 70 1011.1
20260508030559 8 84 0.0 0.0 0.00 0.00 0.00 71 1011.1
20260508030058 8 68 0.0 0.0 0.00 0.00 0.00 71 1011.1
20260508025553 8 62 0.0 0.0 0.00 0.00 0.00 74 1010.7
20260508025051 8 72 0.0 0.0 0.00 0.00 0.00 76 1011.1
20260508024546 7 72 0.0 0.0 0.00 0.00 0.00 76 1011.1
20260508024044 7 72 0.0 0.0 0.00 0.00 0.00 75 1011.1
20260508023540 7 72 0.0 0.0 0.00 0.00 0.00 73 1011.1
20260508023038 8 72 0.0 0.0 0.00 0.00 0.00 73 1010.7
20260508022533 8 72 0.0 0.0 0.00 0.00 0.00 73 1011.1
20260508022031 8 72 0.0 0.0 0.00 0.00 0.00 73 1010.7
20260508021526 8 71 0.0 0.0 0.00 0.00 0.00 71 1010.7
20260508021022 8 71 0.0 0.0 0.00 0.00 0.00 69 1010.7
20260508020520 8 71 0.0 0.0 0.00 0.00 0.00 69 1010.7
20260508020018 8 71 0.0 0.0 0.00 0.00 0.00 70 1010.7
20260508015515 8 73 0.0 0.0 0.00 0.00 0.00 70 1011.1
20260508015012 8 73 0.0 0.0 0.00 0.00 0.00 69 1011.1
20260508014508 8 73 0.0 0.0 0.00 0.00 0.00 69 1011.1
20260508014004 8 73 0.0 0.0 0.00 0.00 0.00 68 1010.7
20260508013500 8 73 0.0 0.0 0.00 0.00 0.00 66 1011.1
20260508012958 9 73 0.0 0.0 0.00 0.00 0.00 65 1011.1
20260508012455 9 73 0.0 0.0 0.00 0.00 0.00 65 1011.1
20260508011952 10 73 0.0 0.0 0.00 0.00 0.00 63 1010.7
20260508011450 10 73 0.0 0.0 0.00 0.00 0.00 61 1010.7
20260508010947 10 73 0.0 0.0 0.00 0.00 0.00 60 1010.7
20260508010444 10 73 0.0 0.0 0.00 0.00 0.00 59 1010.7
20260508005941 10 73 0.0 0.0 0.00 0.00 0.00 58 1010.7
20260508005438 11 73 0.0 0.0 0.00 0.00 0.00 57 1010.4
20260508004935 11 69 0.0 0.0 0.00 0.00 0.00 57 1010.4
20260508004431 11 70 0.0 0.0 0.00 0.00 0.00 56 1010.7
20260508003927 11 73 0.0 0.0 0.00 0.00 0.00 57 1010.4
20260508003424 11 78 0.0 0.0 0.00 0.00 0.00 56 1010.4
20260508002922 11 78 0.0 0.0 0.00 0.00 0.00 53 1010.4
20260508002418 11 73 0.0 0.0 0.00 0.00 0.00 53 1010.4
20260508001914 12 73 0.0 0.0 0.00 0.00 0.00 53 1010.4
20260508001411 12 75 0.0 0.0 0.00 0.00 0.00 51 1010.4
20260508000907 12 75 0.0 0.0 0.00 0.00 0.00 49 1010.4
20260508000405 12 88 0.0 0.0 0.00 0.00 0.00 48 1010.0
20260507235900 13 95 0.0 0.0 0.00 0.00 0.00 47 1010.0
20260507235357 13 79 0.0 1.6 0.00 0.00 0.00 47 1010.0
20260507234854 13 82 0.0 0.0 0.00 0.00 0.00 46 1010.0
20260507234351 13 62 0.0 1.6 0.00 0.00 0.00 46 1010.4
20260507233848 13 75 0.0 0.0 0.00 0.00 0.00 49 1010.0
20260507233345 13 79 0.0 0.0 0.00 0.00 0.00 48 1010.0
20260507232843 13 79 0.0 0.0 0.00 0.00 0.00 48 1010.0
20260507232339 13 90 0.0 0.0 0.00 0.00 0.00 48 1010.0
20260507231837 13 87 0.0 0.0 0.00 0.00 0.00 50 1010.0
20260507231333 14 71 0.0 0.0 0.00 0.00 0.00 46 1010.0
20260507230829 14 69 0.0 0.0 0.00 0.00 0.00 45 1010.0
20260507230327 14 98 0.0 0.0 0.00 0.00 0.00 46 1010.0
20260507225827 15 74 0.0 0.0 0.00 0.00 0.00 45 1010.0
20260507225323 15 78 0.0 0.0 0.00 0.00 0.00 46 1010.0
20260507224819 15 185 3.2 3.2 0.00 0.00 0.00 45 1010.0
20260507224316 15 73 0.0 1.6 0.00 0.00 0.00 46 1010.0
20260507223812 15 53 0.0 1.6 0.00 0.00 0.00 45 1010.4
20260507223308 14 78 0.0 0.0 0.00 0.00 0.00 45 1010.4
20260507222806 15 77 0.0 0.0 0.00 0.00 0.00 45 1010.0
20260507222305 16 152 8.0 12.9 0.00 0.00 0.00 41 1010.4
20260507221759 16 97 0.0 0.0 0.00 0.00 0.00 44 1010.4
20260507221255 16 57 3.2 3.2 0.00 0.00 0.00 41 1010.7
20260507220751 15 60 4.8 8.0 0.00 0.00 0.00 41 1010.7
20260507220250 15 93 4.8 4.8 0.00 0.00 0.00 40 1010.4
20260507215746 15 88 1.6 1.6 0.00 0.00 0.00 41 1010.4
20260507215244 14 183 0.0 1.6 0.00 0.00 0.00 44 1010.0
20260507214740 15 59 3.2 4.8 0.00 0.00 0.00 43 1010.4
20260507214238 16 80 0.0 0.0 0.00 0.00 0.00 44 1010.4
20260507213733 15 54 0.0 0.0 0.00 0.00 0.00 47 1010.4
20260507213230 15 172 3.2 4.8 0.00 0.00 0.00 42 1010.4
20260507212726 16 200 1.6 1.6 0.00 0.00 0.00 40 1010.4
20260507212223 16 184 8.0 17.7 0.00 0.00 0.00 40 1010.0
20260507211720 16 74 3.2 4.8 0.00 0.00 0.00 41 1010.0
20260507211215 16 170 1.6 1.6 0.00 0.00 0.00 40 1010.0
20260507210713 16 103 1.6 1.6 0.00 0.00 0.00 41 1010.0
20260507210210 16 179 4.8 8.0 0.00 0.00 0.00 41 1010.0
20260507205706 16 82 4.8 4.8 0.00 0.00 0.00 41 1010.0
20260507205203 16 146 4.8 8.0 0.00 0.00 0.00 41 1010.0
20260507204659 16 75 0.0 0.0 0.00 0.00 0.00 41 1010.0
20260507204157 16 84 3.2 3.2 0.00 0.00 0.00 42 1010.0
20260507203655 15 75 3.2 4.8 0.00 0.00 0.00 42 1010.4
20260507203152 16 110 1.6 3.2 0.00 0.00 0.00 44 1010.0
20260507202647 15 174 4.8 9.7 0.00 0.00 0.00 43 1010.0
20260507202144 15 148 3.2 3.2 0.00 0.00 0.00 44 1010.0
20260507201639 14 82 0.0 1.6 0.00 0.00 0.00 45 1010.0
20260507201136 14 182 1.6 3.2 0.00 0.00 0.00 46 1010.0
20260507200632 15 109 3.2 3.2 0.00 0.00 0.00 43 1010.4
20260507200128 15 116 4.8 9.7 0.00 0.00 0.00 44 1010.4
20260507195626 15 61 0.0 0.0 0.00 0.00 0.00 50 1010.0
20260507195123 16 202 4.8 4.8 0.00 0.00 0.00 44 1010.4
20260507194619 15 78 0.0 1.6 0.00 0.00 0.00 45 1010.4
20260507194115 15 291 4.8 8.0 0.00 0.00 0.00 44 1010.4
20260507193612 15 76 1.6 1.6 0.00 0.00 0.00 44 1010.7
20260507193109 16 31 3.2 4.8 0.00 0.00 0.00 43 1010.7
20260507192605 16 75 1.6 1.6 0.00 0.00 0.00 43 1010.4
20260507192102 16 34 4.8 4.8 0.00 0.00 0.00 44 1010.4
20260507191557 16 71 1.6 1.6 0.00 0.00 0.00 46 1010.4
20260507191055 15 95 3.2 3.2 0.00 0.00 0.00 45 1010.4
20260507190552 15 198 3.2 8.0 0.00 0.00 0.00 47 1010.4
20260507190051 16 304 6.4 9.7 0.00 0.00 0.00 45 1010.4